Tracking 29892 objects as of 21-Nov-2024
HD Live streaming from Space Station
objects crossing your sky now

BS-3N

Track BS-3N now!
BS-3N is classified as:


NORAD ID: 23176
Int'l Code: 1994-040B
Perigee: 36,109.9 km
Apogee: 36,113.2 km
Inclination: 12.7 °
Period: 1,452.4 minutes
Semi major axis: 42482 km
RCS: 15.8489 m2 (large)
Launch date: July 8, 1994
Source: Japan (JPN)
Launch site: FRENCH GUIANA (FRGUI)

BS-3N was a Japanese geostationary communications satellite. It is designed to serve the Pacific region countries.
Your satellite tracking list
Your tracking list is empty




NASA's NSSDC Master Catalog

Two Line Element Set (TLE):
1 23176U 94040B   24325.83831887 -.00000035  00000-0  00000-0 0  9997
2 23176  12.7262  24.0204 0000381 355.2919  71.2125  0.99148734 96625
Source of the keplerian elements: AFSPC